Weather History for Stuart, FL

Change the Weather History Date:

Friday, December 7, 2012

  Actual Average Record
Temperature  
Mean Temperature 70 °F -  
Max Temperature 77 °F 77 °F 84 °F (1948)
Min Temperature 64 °F 59 °F 35 °F (2010)
Cooling Degree Days 6    
Growing Degree Days 20 (Base 50)    
Moisture  
Dew Point 66 °F    
Average Humidity 90    
Maximum Humidity 100    
Minimum Humidity 74    
Precipitation  
Precipitation 0.00 in - - ()
Sea Level Pressure  
Sea Level Pressure 29.97 in    
Wind  
Wind Speed 3 mph (SSE)    
Max Wind Speed 12 mph    
Max Gust Speed 18 mph    
Visibility 9 miles    
Events Thunderstorm    
Averages and records for this station are not official NWS values.
T = Trace of Precipitation, MM = Missing Value Source: NWS Daily Summary

Daily Weather History Graph

Daily Weather History Graph

Search for Another Location

Airport:

Trip Planner

Search our weather history database for the weather conditions in past years. The results will help you decide how hot, cold, wet, or windy it might be!

Date:

Astronomy

Dec. 07, 2012 Rise Set
Actual Time 6:57 AM EST 5:27 PM EST
Civil Twilight 6:32 AM EST 5:52 PM EST
Nautical Twilight 6:03 AM EST 6:21 PM EST
Astronomical Twilight 5:35 AM EST 6:49 PM EST
Moon 12:45 AM EST (12/7) 12:56 PM EST (12/7)
Length of Visible Light 11h 20m
Length of Day
10h 29m
Last Quarter, 39% of the Moon is Illuminated
Dec 7
Last Quarter
Dec 13
New
Dec 20
First Quarter
Dec 28
Full
Jan 4
Last Quarter

Hourly Weather History & Observations

Time (EST) Temp. Dew Point Humidity Pressure Visibility Wind Dir Wind Speed Gust Speed Precip Events Conditions
12:15 AM 68.0 °F 66.2 °F 94% 29.97 in 10.0 mi SW 3.5 mph - N/A   Scattered Clouds
12:35 AM 68.0 °F 66.2 °F 94% 29.97 in 10.0 mi SSW 5.8 mph - N/A   Scattered Clouds
12:55 AM 68.0 °F 66.2 °F 94% 29.97 in 10.0 mi South 5.8 mph - N/A   Mostly Cloudy
1:15 AM 68.0 °F 64.4 °F 88% 29.96 in 10.0 mi SW 5.8 mph - N/A   Scattered Clouds
1:35 AM 68.0 °F 64.4 °F 88% 29.95 in 10.0 mi SW 4.6 mph - N/A Thunderstorm Clear
1:55 AM 68.0 °F 64.4 °F 88% 29.96 in 10.0 mi Calm Calm - N/A   Mostly Cloudy
2:15 AM 68.0 °F 64.4 °F 88% 29.95 in 10.0 mi Calm Calm - N/A   Mostly Cloudy
2:35 AM 66.2 °F 64.4 °F 94% 29.95 in 10.0 mi North 3.5 mph - N/A Thunderstorm Scattered Clouds
2:55 AM 66.2 °F 64.4 °F 94% 29.95 in 10.0 mi Calm Calm - N/A   Scattered Clouds
3:15 AM 64.4 °F 64.4 °F 100% 29.95 in 10.0 mi Calm Calm - N/A   Mostly Cloudy
3:35 AM 66.2 °F 64.4 °F 94% 29.94 in 10.0 mi Calm Calm - N/A Thunderstorm Mostly Cloudy
3:55 AM 66.2 °F 64.4 °F 94% 29.94 in 10.0 mi Calm Calm - N/A   Clear
4:15 AM 64.4 °F 62.6 °F 94% 29.94 in 10.0 mi South 4.6 mph - N/A Thunderstorm Clear
4:35 AM 66.2 °F 64.4 °F 94% 29.94 in 10.0 mi SSW 4.6 mph - N/A   Scattered Clouds
4:55 AM 64.4 °F 64.4 °F 100% 29.95 in 10.0 mi SE 3.5 mph - N/A   Scattered Clouds
5:15 AM 64.4 °F 62.6 °F 94% 29.96 in 10.0 mi SSE 3.5 mph - N/A   Mostly Cloudy
6:47 AM 66.2 °F 64.4 °F 94% 29.96 in 10.0 mi Variable 3.5 mph - N/A   Mostly Cloudy
7:47 AM 66.2 °F 66.2 °F 100% 29.99 in 7.0 mi Variable 3.5 mph - N/A   Mostly Cloudy
8:47 AM 69.8 °F 68.0 °F 94% 30.01 in 7.0 mi Calm Calm - N/A   Mostly Cloudy
9:47 AM 71.6 °F 68.0 °F 88% 30.02 in 7.0 mi Calm Calm - N/A   Mostly Cloudy
10:47 AM 75.2 °F 68.0 °F 78% 30.01 in 7.0 mi Calm Calm - N/A   Mostly Cloudy
11:47 AM 77.0 °F 68.0 °F 74% 30.00 in 7.0 mi NNE 10.4 mph 13.8 mph N/A Thunderstorm Mostly Cloudy
12:47 PM 75.2 °F 68.0 °F 78% 29.98 in 7.0 mi ESE 11.5 mph 18.4 mph N/A   Mostly Cloudy
1:47 PM 71.6 °F 66.2 °F 83% 29.95 in 7.0 mi Calm Calm - N/A   Mostly Cloudy
2:47 PM 77.0 °F 68.0 °F 74% 29.93 in 7.0 mi SSE 6.9 mph - N/A   Mostly Cloudy
3:47 PM 77.0 °F 68.0 °F 74% 29.94 in 7.0 mi East 8.1 mph - N/A   Scattered Clouds
4:47 PM 73.4 °F 68.0 °F 83% 29.94 in 7.0 mi East 9.2 mph - N/A   Scattered Clouds
6:47 PM 71.6 °F 68.0 °F 88% 29.97 in 10.0 mi Calm Calm - N/A   Scattered Clouds
7:15 PM 71.6 °F 68.0 °F 88% 29.98 in 10.0 mi Calm Calm - N/A   Clear
7:35 PM 69.8 °F 68.0 °F 94% 29.99 in 10.0 mi Calm Calm - N/A   Clear
8:15 PM 69.8 °F 66.2 °F 88% 29.99 in 10.0 mi Calm Calm - N/A   Clear
8:35 PM 68.0 °F 66.2 °F 94% 30.00 in 10.0 mi Calm Calm - N/A   Clear
8:55 PM 69.8 °F 66.2 °F 88% 29.99 in 10.0 mi Calm Calm - N/A   Clear
9:15 PM 68.0 °F 64.4 °F 88% 30.00 in 10.0 mi Calm Calm - N/A   Scattered Clouds
9:35 PM 68.0 °F 66.2 °F 94% 30.00 in 10.0 mi Calm Calm - N/A   Scattered Clouds
9:55 PM 68.0 °F 64.4 °F 88% 30.00 in 10.0 mi Calm Calm - N/A   Clear
10:15 PM 68.0 °F 64.4 °F 88% 30.01 in 10.0 mi Calm Calm - N/A   Clear
10:35 PM 68.0 °F 64.4 °F 88% 30.01 in 10.0 mi Calm Calm - N/A   Clear
10:55 PM 68.0 °F 66.2 °F 94% 30.01 in 10.0 mi Calm Calm - N/A   Clear
11:15 PM 68.0 °F 64.4 °F 88% 30.01 in 10.0 mi Calm Calm - N/A   Clear
11:35 PM 68.0 °F 64.4 °F 88% 30.01 in 10.0 mi Calm Calm - N/A   Scattered Clouds
11:55 PM 66.2 °F 64.4 °F 94% 30.00 in 10.0 mi Calm Calm - N/A   Scattered Clouds